GFSGL_850_thetae_120.txt.gz
Theta_e
348 348 352 353 354 353 353 352 353 354 355 354 355 356 354 352 353 352 351 351 348 340 340 342 346 348 348 346 347 345 345 346 348 347 347 347 347 346 346 347 344 343 344
345 345 345 348 351 354 353 352 352 353 352 354 354 355 355 354 353 354 353 352 351 341 346 348 350 352 350 347 349 349 348 348 348 349 347 347 345 346 343 344 342 343 342
342 342 343 345 348 351 352 352 352 352 352 353 353 354 355 355 355 353 351 352 352 346 350 352 352 350 350 350 349 347 345 346 345 345 347 347 345 346 345 342 342 342 342
341 337 341 343 344 346 349 351 351 349 351 353 353 352 355 357 357 355 353 352 354 354 353 353 351 348 349 349 349 342 346 346 345 344 347 347 344 346 343 345 343 339 341
339 340 341 342 343 342 346 348 350 351 349 352 353 352 353 355 356 352 354 355 354 354 354 353 352 345 343 343 347 345 344 345 343 342 346 347 346 346 341 344 344 342 343
342 339 340 342 343 344 345 348 347 349 349 353 355 355 354 354 354 352 352 354 354 354 354 353 351 339 339 342 342 347 344 344 344 345 346 344 346 346 342 343 342 344 342
341 342 340 339 340 342 345 346 348 351 353 353 354 354 355 355 354 353 352 351 353 354 355 354 349 347 344 345 342 342 342 341 343 345 346 344 347 347 344 344 344 342 341
338 337 338 339 339 337 337 343 344 346 348 348 348 349 350 352 353 354 353 352 351 351 351 352 349 347 347 348 349 342 342 343 341 342 345 347 346 344 345 343 344 341 340
337 338 337 338 339 337 338 339 339 340 342 341 340 338 339 338 337 337 339 338 349 351 350 351 348 345 347 342 349 349 345 346 346 341 342 344 344 339 340 339 343 343 341
332 333 334 335 336 336 335 335 337 337 339 341 340 338 338 338 337 337 337 339 344 348 348 349 347 344 344 339 344 346 346 346 346 346 341 341 338 338 338 338 343 343 342
329 327 327 327 331 330 333 330 330 336 336 338 339 339 339 339 339 340 341 343 347 348 348 348 347 345 341 340 344 345 340 344 339 343 346 345 344 343 343 340 340 342 343
331 329 329 328 332 331 335 335 335 334 338 339 338 341 340 339 338 338 338 342 343 342 344 343 342 340 340 342 340 339 338 341 340 341 340 343 344 345 344 343 342 341 341
331 329 326 328 328 327 334 335 336 336 337 337 338 338 339 339 339 339 339 341 341 340 341 340 339 337 337 338 339 336 336 337 337 337 337 340 342 344 344 343 341 340 340
331 330 330 330 331 333 331 331 334 336 335 333 334 334 333 332 337 337 338 338 338 339 338 338 338 338 338 338 337 336 334 333 332 333 336 338 338 337 336 337 336 335 336
328 328 328 329 330 330 328 329 330 326 330 331 332 332 330 326 325 325 330 335 337 338 338 338 338 337 337 336 335 334 334 334 334 333 332 334 335 335 335 335 333 331 333
326 325 327 327 328 327 328 326 324 327 326 325 325 327 324 323 322 321 321 322 324 325 330 332 334 334 333 331 332 332 332 333 335 335 334 333 332 331 332 332 332 331 332
326 325 326 325 326 325 325 326 328 323 325 327 327 327 326 324 322 321 321 322 322 326 329 329 330 331 329 329 329 329 330 331 331 330 331 331 332 332 331 332 333 333 332
325 322 324 326 325 326 325 324 325 325 327 326 323 325 327 327 323 321 320 325 327 326 327 326 324 325 326 326 327 327 328 328 329 329 331 332 332 332 331 331 331 332 332
325 325 326 326 327 326 327 323 323 324 325 326 325 323 325 327 324 322 320 326 326 326 326 324 324 323 323 324 324 324 325 326 327 328 329 330 331 331 331 330 331 332 331
324 323 324 326 326 325 326 327 327 327 327 326 326 327 324 326 328 329 327 326 326 326 326 323 320 321 320 320 320 323 323 322 322 324 324 325 325 327 328 328 328 328 328
322 324 323 324 324 324 324 325 327 327 327 327 329 328 326 328 328 328 327 326 325 325 325 325 324 323 322 323 324 324 324 324 322 324 324 323 323 323 321 324 324 324 325
321 322 323 323 323 323 323 324 324 325 326 326 327 326 323 324 326 327 326 326 326 325 325 325 324 324 324 324 324 324 324 323 323 324 324 324 324 324 323 324 323 322 322
321 322 323 323 323 321 321 321 321 321 320 320 321 322 325 324 325 324 325 326 326 325 325 324 324 324 324 324 323 323 323 323 323 323 323 323 323 323 323 323 323 323 323
321 322 323 323 322 322 322 321 321 319 319 319 320 321 322 323 323 325 325 324 324 324 324 323 323 323 323 323 323 322 321 320 320 320 322 321 321 322 322 322 322 322 322
319 320 322 322 322 322 321 321 322 322 321 320 319 319 320 320 322 323 324 324 323 323 323 323 323 323 322 321 321 320 318 313 312 309 313 319 319 321 321 321 322 322 322
319 317 319 321 321 321 320 320 320 320 320 321 321 320 319 319 318 318 320 323 325 324 322 323 322 323 323 321 320 319 317 313 312 309 307 315 317 318 319 321 321 320 319

GFSGL_850_thetae_123.txt.gz
Theta_e
347 350 350 353 356 356 355 355 355 354 355 355 354 356 356 355 354 354 353 352 353 350 351 352 349 343 342 344 348 347 345 347 349 349 349 349 348 351 350 348 346 346 345
347 348 348 349 351 354 355 354 354 354 353 355 355 353 357 356 356 355 354 355 352 355 352 351 348 348 345 349 351 348 351 350 350 349 350 350 349 350 348 346 346 349 346
344 345 345 345 346 349 351 353 354 354 353 354 355 356 356 355 356 356 355 355 354 353 354 352 350 352 353 352 351 351 350 351 352 350 350 349 348 348 347 345 346 346 344
343 345 344 344 345 346 348 350 351 353 354 354 354 356 354 355 354 356 356 355 354 353 353 352 352 354 354 350 350 350 351 349 350 349 350 347 347 349 347 348 346 346 346
342 344 344 345 343 342 345 347 349 352 353 354 354 354 356 355 356 355 355 356 355 352 351 352 353 354 355 350 351 351 352 348 351 350 349 347 348 349 349 348 346 345 344
340 341 343 344 340 341 343 344 347 350 351 352 353 355 354 354 356 355 355 355 356 353 351 353 354 354 352 350 347 349 350 347 347 349 349 348 348 349 349 348 345 344 344
341 340 342 341 341 340 340 343 345 347 349 349 350 349 354 355 355 354 354 354 355 354 352 351 353 355 352 352 337 339 348 351 346 348 348 349 349 348 348 347 344 344 346
340 339 340 340 340 341 338 338 343 346 347 348 347 350 352 354 355 355 355 354 353 353 353 353 351 352 353 350 344 341 342 344 343 343 346 347 347 349 346 345 346 346 345
337 337 337 337 338 338 339 340 339 340 344 347 348 349 351 349 351 351 353 355 353 353 352 352 351 351 351 349 348 349 345 342 340 340 343 348 348 349 346 348 345 344 345
334 333 335 335 335 338 334 337 340 341 343 344 345 344 342 342 341 339 338 339 341 344 350 351 349 346 351 348 346 343 347 346 339 347 347 343 344 345 343 341 344 343 342
327 327 333 332 335 336 336 335 335 338 341 341 342 342 344 342 345 341 338 339 342 344 343 346 349 347 346 348 345 340 339 337 335 340 347 344 342 342 338 335 336 340 343
329 331 332 331 334 335 336 336 337 337 339 339 340 339 339 339 338 339 339 339 341 345 344 345 347 348 347 346 344 340 337 338 342 345 341 340 340 337 339 341 341 342 340
328 333 331 331 330 333 335 337 335 336 337 337 338 338 340 340 340 339 339 339 339 343 344 342 344 344 343 342 342 341 341 345 339 338 339 338 338 339 341 345 344 343 342
327 330 332 328 330 329 333 332 334 336 336 334 334 335 335 337 336 337 339 340 341 341 340 341 341 341 340 340 340 340 339 339 337 336 336 337 337 337 339 341 335 334 332
329 329 330 330 328 331 326 329 329 329 332 333 334 333 329 325 327 329 336 338 339 338 338 338 338 337 337 336 337 337 337 337 337 335 334 334 334 334 337 336 335 331 331
326 327 328 327 329 328 330 326 325 327 324 325 327 327 324 322 321 321 322 325 330 334 332 333 334 335 336 337 337 337 336 335 335 335 334 334 334 334 333 333 332 332 332
329 328 326 325 327 327 327 327 329 323 327 326 327 326 324 322 320 320 320 320 324 330 332 334 333 332 332 332 333 333 335 332 331 331 331 332 333 333 334 335 337 336 333
327 325 322 327 326 326 327 326 325 329 328 324 324 326 327 324 321 320 324 327 328 328 330 330 330 328 327 328 328 328 330 331 331 333 334 331 331 333 333 332 332 332 332
326 326 326 326 327 326 328 324 324 325 328 330 324 323 325 326 323 321 325 327 327 328 328 328 328 328 327 327 326 327 327 330 329 329 329 330 330 330 331 330 329 330 330
324 322 323 327 327 326 326 327 325 326 327 326 328 329 323 326 327 329 328 327 327 328 328 327 327 327 327 327 327 326 325 323 322 323 324 325 325 325 327 328 328 327 328
323 325 323 324 325 324 324 324 326 327 328 328 327 328 328 328 329 328 327 327 326 326 326 326 326 326 325 327 327 326 326 326 326 326 326 326 326 326 322 325 326 326 328
324 322 325 323 325 323 324 324 324 326 326 327 328 326 323 324 328 325 325 326 326 326 326 326 326 325 325 326 326 326 325 325 325 325 325 325 325 325 325 325 325 324 324
323 322 322 323 324 323 321 322 323 323 323 323 324 328 326 325 324 326 326 326 326 326 325 325 326 325 325 325 325 325 325 325 324 324 324 324 323 323 323 323 323 323 323
322 323 323 323 323 323 323 322 322 321 321 321 321 322 322 323 324 325 326 325 325 325 324 325 324 324 325 325 324 324 323 323 320 319 322 322 322 321 321 322 322 322 323
321 322 322 323 323 323 321 322 322 323 323 322 321 320 321 322 323 324 327 325 325 325 324 323 323 323 323 323 324 323 322 321 317 316 313 316 319 320 320 321 322 322 322
321 320 320 321 322 322 322 322 321 321 322 322 322 322 321 321 320 319 320 323 324 324 323 323 322 322 322 323 323 323 322 320 317 314 311 312 315 318 318 318 319 321 321

GFSGL_850_thetae_126.txt.gz
Theta_e
346 346 349 352 350 351 356 352 354 355 354 354 353 354 354 356 354 353 351 351 351 350 351 352 350 351 351 350 348 346 345 346 348 342 346 348 350 348 349 351 350 346 345
345 346 346 348 348 350 350 353 356 356 355 354 353 353 353 354 355 355 353 353 353 352 352 350 350 350 350 350 348 346 350 348 348 344 346 346 348 348 347 347 347 344 345
343 344 345 345 346 346 347 349 351 351 355 355 354 352 352 353 353 356 357 355 354 353 354 354 351 351 350 350 347 352 351 348 348 348 347 347 347 348 347 347 343 344 344
342 344 344 344 343 344 343 345 346 349 349 352 354 354 352 352 348 346 356 355 356 356 355 354 351 349 350 350 351 353 350 350 352 349 347 347 347 347 347 347 345 346 346
340 340 339 340 340 343 345 344 341 345 349 350 351 354 352 352 345 333 350 354 354 356 356 354 353 349 348 350 352 354 349 349 348 350 348 348 345 347 346 347 345 345 345
339 339 340 338 339 341 343 342 340 342 346 348 350 352 352 350 351 350 354 355 355 355 355 355 354 351 349 350 352 351 348 349 348 347 346 350 346 347 348 347 346 346 345
337 338 338 339 340 340 341 341 339 342 344 347 350 353 352 352 352 352 353 355 355 353 354 355 354 352 349 351 352 349 346 349 347 344 344 346 347 347 347 345 347 345 346
335 336 338 337 338 338 340 340 340 338 342 345 348 350 349 349 349 352 353 354 354 355 353 354 355 354 354 353 353 350 349 345 346 342 342 342 346 347 348 347 345 346 344
336 335 335 337 336 337 338 338 339 340 337 342 344 345 346 347 346 351 354 354 354 352 353 353 353 352 352 352 349 350 350 344 338 342 344 343 342 345 346 345 346 344 342
332 328 330 334 334 335 335 334 333 336 340 340 342 344 345 345 346 349 350 351 353 354 354 353 352 352 352 349 347 347 350 348 344 344 343 345 344 339 338 341 342 344 343
328 327 326 327 331 335 333 334 337 335 338 340 341 342 345 344 343 343 341 343 345 341 344 347 351 353 352 349 346 348 347 348 345 344 344 343 337 333 335 335 338 340 339
323 324 326 328 330 330 333 334 335 336 336 339 339 341 342 343 342 343 342 339 338 341 344 345 345 347 349 351 348 346 348 346 343 344 339 333 338 336 338 331 336 335 335
325 324 325 327 328 327 331 332 335 336 336 337 336 337 339 339 339 339 338 339 339 340 340 343 345 343 347 346 348 347 346 345 341 341 340 339 340 341 338 339 337 338 340
327 327 326 327 328 329 331 331 331 334 335 334 332 335 335 336 336 337 338 339 339 339 342 342 342 342 344 344 343 345 345 344 340 339 339 340 338 338 338 338 338 340 339
325 324 327 329 331 328 329 324 326 328 333 334 334 333 328 325 326 334 337 338 339 340 340 339 340 339 339 339 339 339 340 340 340 339 338 338 336 335 336 337 337 337 336
323 323 325 327 328 329 330 330 325 326 324 326 327 326 322 321 321 322 325 335 337 337 337 338 337 337 337 336 336 336 336 336 336 336 337 336 336 336 335 334 334 334 334
324 324 325 327 326 327 329 327 329 326 326 326 326 325 323 321 320 321 321 326 331 333 336 336 334 332 333 332 333 334 333 334 334 333 332 332 332 334 334 334 334 335 336
323 326 327 320 327 326 327 327 326 326 326 324 324 323 325 323 320 324 325 325 327 329 332 332 331 329 330 331 331 332 332 332 331 331 331 333 331 332 334 334 335 334 334
325 327 327 326 327 327 327 325 325 325 329 329 324 322 323 324 323 323 327 328 329 329 329 329 328 325 326 326 325 326 327 328 328 329 330 330 331 332 332 332 331 330 329
326 326 322 322 327 327 326 327 326 327 325 328 329 326 323 325 326 328 327 327 328 328 329 329 328 327 326 324 325 323 323 324 326 326 327 326 326 327 328 327 326 327 327
328 326 325 323 324 326 325 325 326 326 329 329 329 330 326 325 329 328 328 326 327 327 327 326 325 321 321 326 328 328 328 327 328 327 327 324 325 325 321 326 326 326 325
327 325 325 325 324 325 324 324 325 326 328 328 329 328 324 324 327 327 326 327 327 325 327 327 326 326 327 326 326 326 326 326 325 325 325 325 324 326 325 324 323 322 324
326 325 322 323 325 324 323 321 323 324 324 325 328 329 325 326 324 326 328 327 326 325 325 325 326 326 325 325 322 325 325 324 324 324 324 324 324 323 322 322 321 323 323
323 323 323 323 324 323 323 323 322 321 321 322 322 323 323 324 325 326 327 326 324 323 325 325 322 325 325 325 324 324 324 324 324 323 322 323 323 322 321 321 320 321 321
322 323 323 323 323 324 322 322 323 323 323 322 321 321 322 322 323 324 327 327 326 325 324 325 325 324 324 324 325 324 324 323 322 322 319 318 315 319 321 320 319 319 320
323 322 321 320 321 322 322 322 322 322 322 322 322 323 322 321 321 321 320 325 326 325 325 325 324 323 322 321 321 323 322 322 322 320 319 317 310 316 318 319 320 318 318

GFSGL_850_thetae_129.txt.gz
Theta_e
343 345 345 345 344 349 350 348 348 351 351 352 353 352 352 351 347 342 341 351 353 349 346 347 348 348 349 351 350 350 350 350 346 342 345 342 348 348 349 349 347 348 350
344 345 345 344 345 346 343 344 348 349 351 353 354 353 354 354 354 352 354 353 354 351 348 347 349 349 351 351 351 351 350 349 344 348 346 343 344 345 345 348 348 346 346
338 339 339 341 344 342 347 345 342 344 348 349 350 353 354 354 353 353 351 350 349 351 351 349 348 349 349 351 348 348 350 347 349 348 345 346 346 346 345 346 348 346 344
340 339 339 336 338 341 342 341 340 340 342 344 347 349 349 352 352 351 351 350 340 333 349 351 352 351 351 351 349 349 349 346 347 349 348 347 345 344 348 348 348 346 345
337 334 333 336 338 338 337 338 339 340 343 341 341 345 349 348 350 351 351 349 334 335 340 342 351 352 352 351 351 349 348 348 349 349 349 349 345 346 344 344 346 345 345
335 332 335 336 336 336 337 338 338 339 341 340 339 341 344 347 349 349 350 349 345 339 338 337 351 351 354 352 350 350 349 350 348 347 348 347 347 346 344 347 348 347 345
336 333 335 334 335 337 337 338 338 339 340 339 339 343 344 346 347 349 350 349 348 341 339 339 339 351 352 353 352 350 350 351 350 339 345 347 346 344 348 347 346 346 346
333 335 335 335 335 337 336 336 337 336 338 339 338 339 344 346 349 350 350 349 349 348 336 336 342 350 352 354 353 350 351 351 349 344 342 338 346 345 347 347 347 346 346
335 335 334 333 329 333 335 335 335 335 338 338 339 338 341 343 346 347 347 347 346 348 336 346 343 350 353 353 352 353 352 351 348 345 344 348 346 344 343 346 347 347 344
334 331 328 327 327 329 331 331 332 333 334 332 336 340 339 342 344 345 346 345 345 347 349 350 351 353 353 351 351 354 352 349 351 350 349 348 345 345 344 343 345 336 337
333 327 328 326 324 325 327 330 333 334 335 336 338 339 339 341 342 342 343 344 345 349 350 352 351 353 353 351 350 351 350 349 347 345 348 345 344 345 345 343 338 333 336
330 327 323 324 323 323 327 331 333 335 335 336 336 337 338 339 341 341 342 341 341 339 343 344 347 351 351 351 352 353 351 348 347 348 346 345 343 345 347 340 336 333 331
326 325 325 325 324 327 328 331 330 330 334 333 334 337 337 338 338 338 339 338 339 340 341 344 346 345 345 345 349 351 351 347 346 347 346 344 344 339 334 338 338 340 338
327 327 327 325 323 328 329 327 328 328 333 334 333 332 331 335 335 336 337 339 339 339 339 340 342 344 344 344 344 346 348 348 347 347 345 343 343 340 338 338 339 337 338
324 325 324 326 327 328 329 328 325 325 325 329 331 328 326 324 326 332 336 337 336 338 339 341 341 342 341 343 343 342 343 344 345 344 342 341 340 339 339 338 336 337 337
325 324 322 324 326 327 328 329 329 327 324 324 323 322 320 320 320 322 330 337 338 338 338 339 339 338 338 338 338 338 338 338 339 339 339 338 338 337 336 335 335 335 335
323 324 323 321 323 326 327 328 328 327 326 325 326 325 323 320 319 320 327 331 333 335 334 333 333 334 335 335 335 335 335 336 336 335 335 335 336 336 335 335 335 334 334
321 322 324 326 326 325 326 327 329 326 325 326 324 324 324 321 322 322 327 328 330 331 334 333 331 331 331 332 332 333 332 334 333 332 331 332 332 333 333 333 333 334 336
325 324 325 324 325 327 327 327 327 327 327 327 325 322 323 323 322 327 327 329 329 329 328 329 327 328 327 327 330 331 331 330 330 329 329 330 331 331 330 331 331 331 330
325 326 326 326 322 325 326 327 326 326 327 328 328 324 322 324 324 323 327 328 328 327 326 325 325 324 324 324 323 324 324 325 326 328 328 327 327 327 328 328 325 325 325
326 327 327 326 324 323 324 324 326 327 326 328 328 328 328 323 327 326 325 326 328 326 325 322 320 320 325 327 326 326 325 326 325 325 325 325 324 323 323 325 325 323 322
324 326 326 325 325 324 324 322 325 326 327 327 327 328 324 323 324 327 328 327 327 325 325 325 325 326 325 324 325 326 326 325 324 326 325 325 326 325 325 325 325 323 322
325 324 324 323 323 324 324 322 322 324 326 327 326 328 325 325 324 324 327 327 327 325 325 325 326 326 327 325 324 324 324 325 324 323 324 324 325 324 323 322 322 321 321
323 322 322 323 323 324 323 323 323 322 321 322 326 325 323 324 325 325 325 327 326 325 325 323 323 324 327 325 324 324 324 324 324 323 323 320 321 322 322 322 320 320 320
322 321 322 323 323 323 323 323 323 324 322 323 320 322 321 323 322 322 326 327 326 324 324 325 325 323 324 324 325 325 324 324 324 321 322 321 321 318 319 320 320 319 319
323 322 320 320 322 322 323 321 323 322 323 323 323 322 322 322 321 321 321 324 326 326 323 325 325 325 324 322 322 321 321 321 321 321 322 321 319 319 311 317 318 319 319